09:09
Airports
History
Links
Donate
Help keep this website running!
PayPal
Bitcoin
This page is community maintained. The information is intended for PC simulator navigation or reference.
Always use approved charts for navigation.
EHNP
Emmeloord
Emmeloord (EHNP)
Emmeloord, Flevoland, Netherlands (8302)
4
Lat/Lng:52° 43' 47.93" N / 5° 44' 48.12" E
52.729981 / 5.7467
Elevation:-8'ft / -2mMSL
ID / ICAO:EHNP
Runways:1
Longest:09-27
Grass 821m / 2,693ft
Nearby Weather08:55 GMT 2018-02-20
Nearby weather at EHLW, Leeuwarden located 34.2 nautical miles from EHNP
Altimeter: 30.12
Visibility: 1.4 statute miles
Wind: 2 knots (from VRB°)
Temp: 0°c / 32°f
Humidity: %

METAR: EHLW 200855Z AUTO VRB02KT 2300 R05/2300N BR OVC063 M00/M01 Q1020 YLO

(Powered by phpweather)
Nearby VORs <50NM
Nearby NDBs
Runway 09 / 27
Dimensions:820.8 x 50m 2693' x 164'ft
Surface:Grass
Runway 09 [A]Runway 27 [B]
Heading:093°TH 273°TH
Lat:
Lng:
52° 43' 48.85"N
5° 44' 26.37"E
52° 43' 47.01"N
5° 45' 9.87"E
User Notes and Comments
52° 43' 47.93" N / 5° 44' 48.12" E
Distance To
Airport ID:
Nearby Airports
4 Voorst Sport 8.7 NM
EHDV ESE 119°
(U) Lelystad 21.1 NM
EHLE SSW 206°
4 Dalfsen Gliders 30.4 NM
EHDS SE 127°
(C) Drachten 31.3 NM
EHDR NNE 30°
(C) Hoogeveen 32.5 NM
EHHO E 89°
(C) Leeuwarden 34.2 NM
EHLW ( WX ) N
(C) Teuge International Airport 35.7 NM
EHTE SSE 159°
VFR Chart
Flight Planning at SkyVector.com